Location: Proctor
(47.8934°N, 114.3048°W)
Time: 07:11:08
(UTC+00:00)

Envisat - Pass Details

Date: 31 May 2024
Orbit: 762 x 764 km, 98.3° (Epoch: 13 June)

Event Time Altitude Azimuth Distance (km) Brightness Sun altitude
Rises 09:50:50 0° 26° (NNE) 3,238 8.2 -13.7°
Reaches altitude 10° 09:53:42 10° 42° (NE) 2,306 6.9 -13.5°
Maximum altitude 09:57:31 21° 91° (E) 1,667 5.1 -13.1°
Drops below altitude 10° 10:01:18 10° 140° (SE) 2,293 5.3 -12.8°
Sets 10:04:08 0° 156° (SSE) 3,213 5.9 -12.5°
